Orbital Elements at Epoch 2459200.5 (2020-Dec-17.0) TDB
Reference: JPL 25 (heliocentric ecliptic J2000)
Element | Value | Uncertainty (1-sigma) | Units |
e | .2391077549884635 | 4.0687e-08 | |
a | 2.469980223050233 | 1.0983e-08 | au |
q | 1.879388797050788 | 1.0336e-07 | au |
i | 8.442846527903976 | 3.8896e-06 | deg |
node | 191.6686633579274 | 2.7489e-05 | deg |
peri | 117.4700317162953 | 2.905e-05 | deg |
M | 210.0510275058982 | 1.2353e-05 | deg |
tp | 2459791.081222022180 (2022-Jul-30.58122202) | 5.1145e-05 | TDB |
period | 1417.877271125333 3.88 | 9.4569e-06 2.589e-08 | d yr |
n | .2539006776759157 | 1.6935e-09 | deg/d |
Q | 3.060571649049679 | 1.3609e-08 | au |
|
| | Orbit Determination Parameters
Additional Information
|